Bilbao, Spain

5:52 AM CEST en Julio 23, 2018 (GMT +0200)
Bilbao

Tiempo Historia de LEBB - Julio, 2018

Change the Weather History Date:

Jueves, Julio 12, 2018

  Actual Average Record
Temperature  
Temperatura media 71 ° F -  
Temperatura máxima 77 ° F 77 ° F 91 ° F (2005)
Temperatura mínima 65 ° F 60 ° F 51 ° F (2012)
Cooling Degree Days 6    
Growing Degree Days 21 (Base 50)    
Moisture  
Punto de rocío 65 ° F    
Average Humidity 81    
Maximum Humidity 96    
Minimum Humidity 56    
Precipitación  
Precipitación 0.08 pul - - ()
Presión al nivel del mar  
Presión al nivel del mar 30.04 pul    
Viento  
Velocidad del viento 5 mph ()    
Velocidad máxima del viento 12 mph    
Max Gust Speed -    
Visibilidad 6.4 Millas    
Eventos Lluvia    
Averages and records for this station are not official NWS values.
T = Trace of Precipitation, MM = Missing Value Source: Averaged Metar Reports

Daily Weather History Graph

Daily Weather History Graph

Search for Another Location

Airport or City:

Astronomía

Jul. 12, 2018 Salida Puesta
Hora real 6:42 AM CEST 9:51 PM CEST
Crepúsculo civil 6:07 AM CEST 10:26 PM CEST
Crepúsculo náutico 5:23 AM CEST 11:10 PM CEST
Crepúsculo astronómico 4:29 AM CEST 12:04 AM CEST
Luna 5:56 AM CEST (7/12) 9:19 PM CEST (7/12)
Horas de luz 16h 18m
Horas de luz
15h 09m
Creciente menguante, 1% of the Moon is Illuminated
Jul 12
Creciente menguante
Jul 13
Nueva
Jul 19
Cuarto creciente
Jul 27
Luna llena
Ago 4
Cuarto menguante

Hourly Weather History & Observations

Hora (CEST) Temp. Punto de rocío Humedad Presión Visibilidad Wind Dir Velocidad del viento Velocidad de ráfagas Precip Eventos Condiciones
12:00 AM 72 ° F 68 ° F 84% 30.02 pul - Norte 4.6 mph - -  
12:00 AM 73.4 ° F 69.8 ° F 88% 30.01 pul 6.2 mi Norte 3.5 mph - N/A   Muy nublado
12:30 AM 73.4 ° F 69.8 ° F 88% 30.01 pul 6.2 mi Variable 1.2 mph - N/A   Muy nublado
1:00 AM 72 ° F 69 ° F 86% 30.01 pul - Oeste 3.5 mph - -  
1:00 AM 71.6 ° F 69.8 ° F 94% 30.01 pul 6.2 mi Oeste 2.3 mph - N/A   Nubes dispersas
1:30 AM 73.4 ° F 69.8 ° F 88% 30.01 pul 6.2 mi NO 3.5 mph - N/A   Muy nublado
2:00 AM 71 ° F 69 ° F 90% 30.02 pul - SSO 1.2 mph - -  
2:00 AM 71.6 ° F 69.8 ° F 94% 30.01 pul 6.2 mi Sin viento Sin viento - N/A   Parcialmente nublado
2:30 AM 71.6 ° F 68.0 ° F 88% 30.01 pul 6.2 mi NO 9.2 mph - N/A   Nubes dispersas
3:00 AM 69 ° F 65 ° F 85% 30.02 pul - NO 8.1 mph - -  
3:00 AM 69.8 ° F 66.2 ° F 88% 30.01 pul 6.2 mi NO 8.1 mph - N/A   Muy nublado
3:30 AM 69.8 ° F 66.2 ° F 88% 30.01 pul 6.2 mi NO 4.6 mph - N/A   Nubes dispersas
4:00 AM 69.8 ° F 66.2 ° F 88% 30.01 pul 6.2 mi NO 5.8 mph - N/A   Nubes dispersas
4:30 AM 69.8 ° F 66.2 ° F 88% 30.01 pul 6.2 mi NNO 6.9 mph - N/A   Nubes dispersas
5:00 AM 68 ° F 64 ° F 82% 30.01 pul 9 mi NNO 11.5 mph - -   Nublado
5:00 AM 69.8 ° F 64.4 ° F 83% 30.01 pul 6.2 mi NNO 11.5 mph - N/A   Muy nublado
5:30 AM 68.0 ° F 64.4 ° F 88% 30.01 pul 6.2 mi NNO 10.4 mph - N/A   Muy nublado
6:00 AM 67 ° F 62 ° F 81% 30.03 pul - NO 6.9 mph - -  
6:00 AM 68.0 ° F 64.4 ° F 88% 30.01 pul 6.2 mi NO 8.1 mph - N/A   Muy nublado
6:30 AM 68.0 ° F 64.4 ° F 88% 30.01 pul 6.2 mi NO 8.1 mph - N/A   Muy nublado
7:00 AM 65 ° F 64 ° F 93% 30.03 pul - NO 6.9 mph - -   Precipitación desconocida
7:00 AM 66.2 ° F 64.4 ° F 94% 30.04 pul 6.2 mi NO 8.1 mph - N/A Lluvia Lluvia débil
7:30 AM 66.2 ° F 64.4 ° F 94% 30.04 pul 3.7 mi ONO 4.6 mph - N/A Lluvia Lluvias
7:39 AM 66.2 ° F 64.4 ° F 94% 30.04 pul 2.8 mi OSO 3.5 mph - N/A Lluvia Lluvias
8:00 AM 65 ° F 64 ° F 96% 30.04 pul 3 mi NNE 2.3 mph - - Lluvia Lluvia fuerte
8:00 AM 66.2 ° F 64.4 ° F 94% 30.04 pul 2.8 mi Variable 2.3 mph - N/A Lluvia Lluvias
8:22 AM 66.2 ° F 64.4 ° F 94% 30.04 pul 3.7 mi Sin viento Sin viento - N/A Lluvia Lluvia débil
8:30 AM 66.2 ° F 64.4 ° F 94% 30.04 pul 3.7 mi Sin viento Sin viento - N/A Lluvia Lluvia débil
9:00 AM 66 ° F 64 ° F 93% 30.06 pul - Oeste 1.2 mph - -   Precipitación desconocida
9:00 AM 66.2 ° F 64.4 ° F 94% 30.04 pul 6.2 mi Variable 1.2 mph - N/A   Muy nublado
9:30 AM 66.2 ° F 64.4 ° F 94% 30.06 pul 6.2 mi Variable 1.2 mph - N/A   Muy nublado
10:00 AM 68 ° F 64 ° F 83% 30.06 pul - SO 1.2 mph - -   Precipitación desconocida
10:00 AM 68.0 ° F 66.2 ° F 94% 30.06 pul 6.2 mi Sin viento Sin viento - N/A   Muy nublado
10:30 AM 69.8 ° F 66.2 ° F 88% 30.06 pul 6.2 mi Sin viento Sin viento - N/A   Muy nublado
11:00 AM 70 ° F 65 ° F 79% 30.08 pul 12 mi Este 2.3 mph - -   Parcialmente nublado
11:00 AM 71.6 ° F 66.2 ° F 83% 30.06 pul 6.2 mi Variable 2.3 mph - N/A   Muy nublado
11:30 AM 71.6 ° F 64.4 ° F 78% 30.06 pul 6.2 mi Norte 4.6 mph - N/A   Muy nublado
12:00 PM 73.4 ° F 66.2 ° F 78% 30.06 pul 6.2 mi Norte 4.6 mph - N/A   Nubes dispersas
12:30 PM 73.4 ° F 64.4 ° F 73% 30.06 pul 6.2 mi NNO 5.8 mph - N/A   Nubes dispersas
1:00 PM 73.4 ° F 64.4 ° F 73% 30.06 pul 6.2 mi NNO 8.1 mph - N/A   Nubes dispersas
1:30 PM 73.4 ° F 64.4 ° F 73% 30.06 pul 6.2 mi NNO 9.2 mph - N/A   Nubes dispersas
2:00 PM 74 ° F 64 ° F 62% 30.07 pul 12 mi Norte 4.6 mph - -   Muy nublado
2:00 PM 75.2 ° F 64.4 ° F 69% 30.06 pul 6.2 mi Norte 4.6 mph - N/A   Muy nublado
2:30 PM 75.2 ° F 66.2 ° F 73% 30.06 pul 6.2 mi Norte 6.9 mph - N/A   Muy nublado
3:00 PM 74 ° F 66 ° F 69% 30.07 pul - NNO 6.9 mph - -  
3:00 PM 75.2 ° F 66.2 ° F 73% 30.06 pul 6.2 mi NNO 5.8 mph - N/A   Muy nublado
3:30 PM 75.2 ° F 68.0 ° F 78% 30.06 pul 6.2 mi NNE 6.9 mph - N/A   Muy nublado
4:00 PM 75.2 ° F 66.2 ° F 73% 30.06 pul 6.2 mi Norte 9.2 mph - N/A   Muy nublado
4:30 PM 75.2 ° F 68.0 ° F 78% 30.06 pul 6.2 mi Norte 8.1 mph - N/A   Muy nublado
5:00 PM 76 ° F 67 ° F 65% 30.06 pul 12 mi NNO 8.1 mph - -   Muy nublado
5:00 PM 75.2 ° F 66.2 ° F 73% 30.06 pul 6.2 mi Norte 8.1 mph - N/A   Nubes dispersas
5:30 PM 75.2 ° F 68.0 ° F 78% 30.06 pul 6.2 mi Norte 10.4 mph - N/A   Nubes dispersas
6:00 PM 75.2 ° F 68.0 ° F 78% 30.06 pul 6.2 mi NNE 8.1 mph - N/A   Nubes dispersas
6:30 PM 75.2 ° F 66.2 ° F 73% 30.06 pul 6.2 mi Norte 6.9 mph - N/A   Nubes dispersas
7:00 PM 74 ° F 63 ° F 60% 30.06 pul - ENE 5.8 mph - -  
7:00 PM 75.2 ° F 64.4 ° F 69% 30.04 pul 6.2 mi ENE 5.8 mph - N/A   Nubes dispersas
7:30 PM 75.2 ° F 64.4 ° F 69% 30.06 pul 6.2 mi NE 8.1 mph - N/A   Nubes dispersas
8:00 PM 74 ° F 61 ° F 56% 30.07 pul 12 mi NE 9.2 mph - -   Muy nublado
9:00 PM 71.6 ° F 60.8 ° F 69% 30.06 pul 6.2 mi ENE 5.8 mph - N/A   Muy nublado
9:30 PM 71.6 ° F 60.8 ° F 69% 30.06 pul 6.2 mi ENE 4.6 mph - N/A   Nubes dispersas
10:00 PM 70 ° F 59 ° F 59% 30.09 pul - ENE 3.5 mph - -  
10:30 PM 69.8 ° F 60.8 ° F 73% 30.09 pul 6.2 mi Variable 2.3 mph - N/A   Parcialmente nublado
11:00 PM 68.0 ° F 60.8 ° F 78% 30.09 pul 6.2 mi Variable 2.3 mph - N/A   Parcialmente nublado
11:30 PM 66.2 ° F 60.8 ° F 83% 30.09 pul 6.2 mi Variable 2.3 mph - N/A   Parcialmente nublado